| time (UTC) | temp F | wind direction | speed MPH | gust MPH | rain 1hr in | rain 24hr in | rain mn in | humidity % | barometer mb |
| 20260510163012 | 62 | 112 | 2.0 | 5.0 | 0.00 | 0.19 | 0.19 | 90 | 7.6 |
| 20260510162012 | 62 | 90 | 1.0 | 3.0 | 0.00 | 0.19 | 0.19 | 92 | 7.7 |
| 20260510161012 | 62 | 135 | 1.0 | 3.0 | 0.00 | 0.19 | 0.19 | 91 | 7.8 |
| 20260510160012 | 62 | 135 | 1.0 | 4.0 | 0.00 | 0.19 | 0.19 | 90 | 8.1 |
| 20260510155012 | 62 | 90 | 1.0 | 3.0 | 0.00 | 0.19 | 0.19 | 92 | 8.2 |
| 20260510154012 | 62 | 67 | 2.0 | 4.0 | 0.00 | 0.19 | 0.19 | 92 | 8.4 |
| 20260510153012 | 61 | 90 | 2.0 | 4.0 | 0.00 | 0.19 | 0.19 | 92 | 8.4 |
| 20260510152012 | 61 | 67 | 2.0 | 3.0 | 0.00 | 0.19 | 0.19 | 91 | 8.6 |
| 20260510151012 | 61 | 90 | 2.0 | 4.0 | 0.00 | 0.19 | 0.19 | 91 | 8.6 |
| 20260510150013 | 61 | 90 | 1.0 | 4.0 | 0.00 | 0.19 | 0.19 | 91 | 8.7 |
| 20260510145012 | 61 | 90 | 2.0 | 4.0 | 0.00 | 0.19 | 0.19 | 91 | 8.8 |
| 20260510143012 | 61 | 157 | 2.0 | 4.0 | 0.01 | 0.19 | 0.19 | 92 | 9.0 |
| 20260510142012 | 62 | 67 | 3.0 | 4.0 | 0.02 | 0.19 | 0.19 | 92 | 9.0 |
| 20260510141012 | 61 | 112 | 3.0 | 4.0 | 0.02 | 0.19 | 0.19 | 92 | 9.1 |
| 20260510140012 | 60 | 90 | 2.0 | 4.0 | 0.02 | 0.19 | 0.19 | 92 | 9.3 |
| 20260510134012 | 60 | 90 | 1.0 | 3.0 | 0.01 | 0.18 | 0.18 | 91 | 9.6 |
| 20260510133012 | 60 | 90 | 1.0 | 3.0 | 0.01 | 0.18 | 0.18 | 92 | 9.8 |
| 20260510132012 | 61 | 90 | 2.0 | 5.0 | 0.00 | 0.17 | 0.17 | 91 | 9.9 |
| 20260510131012 | 60 | 90 | 1.0 | 3.0 | 0.00 | 0.17 | 0.17 | 89 | 9.9 |
| 20260510130013 | 60 | 67 | 1.0 | 4.0 | 0.00 | 0.17 | 0.17 | 90 | 10.0 |
| 20260510125012 | 60 | 67 | 0.0 | 3.0 | 0.01 | 0.17 | 0.17 | 91 | 10.1 |
| 20260510124012 | 60 | 90 | 2.0 | 4.0 | 0.01 | 0.17 | 0.17 | 88 | 10.1 |
| 20260510123012 | 60 | 112 | 2.0 | 3.0 | 0.01 | 0.17 | 0.17 | 88 | 10.3 |
| 20260510122012 | 60 | 112 | 1.0 | 3.0 | 0.02 | 0.17 | 0.17 | 87 | 10.4 |
| 20260510121012 | 60 | 135 | 1.0 | 3.0 | 0.02 | 0.17 | 0.17 | 89 | 10.5 |
| 20260510120012 | 60 | 135 | 1.0 | 4.0 | 0.02 | 0.17 | 0.17 | 90 | 10.5 |
| 20260510115012 | 59 | 90 | 1.0 | 2.0 | 0.02 | 0.17 | 0.17 | 91 | 10.5 |
| 20260510114012 | 59 | 90 | 1.0 | 3.0 | 0.02 | 0.17 | 0.17 | 92 | 10.6 |
| 20260510113012 | 59 | 135 | 0.0 | 2.0 | 0.02 | 0.17 | 0.17 | 93 | 10.6 |
| 20260510111012 | 59 | 180 | 1.0 | 5.0 | 0.02 | 0.16 | 0.16 | 92 | 10.8 |
| 20260510110012 | 59 | 0 | 0.0 | 0.0 | 0.02 | 0.15 | 0.15 | 94 | 10.9 |
| 20260510105012 | 59 | 0 | 0.0 | 0.0 | 0.02 | 0.15 | 0.15 | 93 | 10.8 |
| 20260510103011 | 59 | 157 | 0.0 | 4.0 | 0.02 | 0.14 | 0.14 | 93 | 11.0 |
| 20260510102012 | 59 | 135 | 1.0 | 3.0 | 0.02 | 0.14 | 0.14 | 93 | 11.0 |
| 20260510101011 | 59 | 202 | 0.0 | 3.0 | 0.01 | 0.13 | 0.13 | 93 | 11.1 |
| 20260510100012 | 59 | 157 | 1.0 | 4.0 | 0.01 | 0.13 | 0.13 | 94 | 11.1 |
| 20260510094011 | 59 | 247 | 1.0 | 5.0 | 0.00 | 0.13 | 0.13 | 94 | 11.1 |
| 20260510092012 | 58 | 180 | 1.0 | 5.0 | 0.01 | 0.13 | 0.13 | 95 | 11.1 |
| 20260510090012 | 58 | 225 | 1.0 | 4.0 | 0.02 | 0.13 | 0.13 | 95 | 11.2 |
| 20260510085011 | 58 | 157 | 1.0 | 3.0 | 0.02 | 0.13 | 0.13 | 94 | 11.2 |
| 20260510084011 | 58 | 157 | 2.0 | 4.0 | 0.02 | 0.13 | 0.13 | 95 | 11.2 |
| 20260510083012 | 58 | 180 | 2.0 | 6.0 | 0.02 | 0.12 | 0.12 | 95 | 11.3 |
| 20260510081011 | 58 | 180 | 1.0 | 3.0 | 0.01 | 0.11 | 0.11 | 95 | 11.2 |
| 20260510080012 | 58 | 180 | 0.0 | 2.0 | 0.01 | 0.11 | 0.11 | 95 | 11.3 |
| 20260510074012 | 58 | 180 | 1.0 | 4.0 | 0.00 | 0.10 | 0.10 | 94 | 11.1 |
| 20260510073011 | 58 | 157 | 1.0 | 4.0 | 0.00 | 0.10 | 0.10 | 94 | 11.2 |
| 20260510072011 | 58 | 225 | 0.0 | 1.0 | 0.01 | 0.10 | 0.10 | 95 | 11.1 |
| 20260510071012 | 57 | 225 | 0.0 | 2.0 | 0.02 | 0.10 | 0.10 | 94 | 11.0 |
| 20260510070012 | 57 | 247 | 2.0 | 3.0 | 0.02 | 0.10 | 0.10 | 94 | 11.0 |
| 20260510065011 | 57 | 270 | 1.0 | 3.0 | 0.02 | 0.10 | 0.10 | 95 | 11.1 |
| 20260510064011 | 57 | 225 | 0.0 | 2.0 | 0.02 | 0.10 | 0.10 | 95 | 11.2 |
| 20260510063011 | 57 | 157 | 0.0 | 2.0 | 0.02 | 0.10 | 0.10 | 95 | 11.4 |
| 20260510062011 | 57 | 0 | 0.0 | 0.0 | 0.02 | 0.09 | 0.09 | 94 | 11.4 |
| 20260510061011 | 57 | 0 | 0.0 | 0.0 | 0.01 | 0.09 | 0.09 | 93 | 11.6 |
| 20260510060012 | 57 | 247 | 1.0 | 6.0 | 0.00 | 0.08 | 0.08 | 92 | 11.4 |
| 20260510055012 | 57 | 202 | 0.0 | 1.0 | 0.00 | 0.08 | 0.08 | 92 | 11.4 |
| 20260510054011 | 57 | 225 | 0.0 | 3.0 | 0.00 | 0.08 | 0.08 | 92 | 11.3 |
| 20260510053011 | 57 | 180 | 1.0 | 3.0 | 0.00 | 0.08 | 0.08 | 92 | 11.2 |
| 20260510051012 | 57 | 180 | 0.0 | 2.0 | 0.01 | 0.08 | 0.08 | 92 | 11.2 |
| 20260510050012 | 57 | 180 | 0.0 | 4.0 | 0.01 | 0.08 | 0.08 | 92 | 11.2 |
| 20260510045011 | 57 | 180 | 0.0 | 4.0 | 0.03 | 0.08 | 0.08 | 92 | 11.1 |
| 20260510044011 | 57 | 180 | 1.0 | 3.0 | 0.03 | 0.08 | 0.08 | 92 | 10.9 |
| 20260510043011 | 57 | 202 | 0.0 | 2.0 | 0.03 | 0.08 | 0.08 | 93 | 10.9 |
| 20260510042011 | 57 | 0 | 0.0 | 0.0 | 0.03 | 0.08 | 0.08 | 92 | 10.8 |
| 20260510040012 | 58 | 225 | 4.0 | 10.0 | 0.02 | 0.07 | 0.07 | 88 | 10.5 |
| 20260510035011 | 58 | 247 | 1.0 | 7.0 | 0.01 | 0.05 | 0.05 | 92 | 10.4 |
| 20260510034011 | 58 | 0 | 0.0 | 0.0 | 0.01 | 0.05 | 0.05 | 92 | 10.4 |
| 20260510033011 | 58 | 0 | 0.0 | 0.0 | 0.02 | 0.05 | 0.05 | 90 | 10.5 |
| 20260510032011 | 58 | 0 | 0.0 | 0.0 | 0.02 | 0.05 | 0.05 | 89 | 10.5 |
| 20260510031011 | 59 | 247 | 0.0 | 3.0 | 0.05 | 0.05 | 0.05 | 88 | 10.3 |
| 20260510030012 | 60 | 247 | 2.0 | 7.0 | 0.05 | 0.05 | 0.05 | 87 | 10.3 |
| 20260510025011 | 60 | 225 | 4.0 | 10.0 | 0.04 | 0.04 | 0.04 | 86 | 10.3 |
| 20260510024011 | 60 | 225 | 0.0 | 2.0 | 0.04 | 0.04 | 0.04 | 89 | 10.3 |
| 20260510023011 | 60 | 225 | 0.0 | 2.0 | 0.03 | 0.03 | 0.03 | 89 | 10.3 |
| 20260510022011 | 60 | 247 | 0.0 | 3.0 | 0.02 | 0.02 | 0.02 | 88 | 10.2 |
| 20260510021011 | 61 | 247 | 2.0 | 7.0 | 0.00 | 0.00 | 0.00 | 85 | 10.1 |
| 20260510020012 | 61 | 0 | 0.0 | 0.0 | 0.00 | 0.00 | 0.00 | 88 | 10.0 |
| 20260510015011 | 61 | 0 | 0.0 | 0.0 | 0.00 | 0.00 | 0.00 | 86 | 9.9 |
| 20260510014011 | 61 | 0 | 0.0 | 0.0 | 0.00 | 0.00 | 0.00 | 86 | 9.9 |
| 20260510013011 | 61 | 0 | 0.0 | 0.0 | 0.00 | 0.00 | 0.00 | 87 | 9.8 |
| 20260510012011 | 61 | 0 | 0.0 | 0.0 | 0.00 | 0.00 | 0.00 | 85 | 9.8 |
| 20260510011011 | 60 | 0 | 0.0 | 0.0 | 0.00 | 0.00 | 0.00 | 86 | 9.7 |
| 20260510010012 | 61 | 180 | 0.0 | 1.0 | 0.00 | 0.00 | 0.00 | 86 | 9.8 |
| 20260510005011 | 61 | 0 | 0.0 | 0.0 | 0.00 | 0.00 | 0.00 | 85 | 9.8 |
| 20260510004011 | 61 | 180 | 0.0 | 2.0 | 0.00 | 0.00 | 0.00 | 85 | 9.9 |
| 20260510000011 | 62 | 180 | 0.0 | 2.0 | 0.00 | 0.00 | 0.00 | 82 | 10.0 |
| 20260509235011 | 63 | 0 | 0.0 | 0.0 | 0.00 | 0.00 | 0.00 | 78 | 10.1 |
| 20260509234011 | 63 | 90 | 0.0 | 1.0 | 0.00 | 0.00 | 0.00 | 76 | 10.4 |
| 20260509233011 | 63 | 0 | 0.0 | 0.0 | 0.00 | 0.00 | 0.00 | 81 | 10.6 |
| 20260509231011 | 63 | 0 | 0.0 | 0.0 | 0.00 | 0.00 | 0.00 | 79 | 10.6 |
| 20260509230011 | 64 | 0 | 0.0 | 0.0 | 0.00 | 0.00 | 0.00 | 79 | 10.8 |
| 20260509225011 | 64 | 90 | 1.0 | 3.0 | 0.00 | 0.00 | 0.00 | 77 | 10.8 |
| 20260509224011 | 64 | 0 | 0.0 | 0.0 | 0.00 | 0.00 | 0.00 | 81 | 10.8 |
| 20260509222011 | 64 | 0 | 0.0 | 0.0 | 0.00 | 0.00 | 0.00 | 78 | 11.0 |
| 20260509221012 | 64 | 0 | 0.0 | 0.0 | 0.00 | 0.00 | 0.00 | 83 | 11.1 |
| 20260509220011 | 64 | 0 | 0.0 | 0.0 | 0.00 | 0.00 | 0.00 | 80 | 11.1 |
| 20260509215011 | 63 | 0 | 0.0 | 0.0 | 0.00 | 0.00 | 0.00 | 83 | 11.1 |
| 20260509212011 | 62 | 0 | 0.0 | 0.0 | 0.00 | 0.00 | 0.00 | 92 | 10.8 |
| 20260509211011 | 62 | 0 | 0.0 | 0.0 | 0.00 | 0.00 | 0.00 | 89 | 10.8 |
| 20260509210011 | 62 | 0 | 0.0 | 0.0 | 0.00 | 0.00 | 0.00 | 85 | 10.8 |
| 20260509203011 | 63 | 0 | 0.0 | 0.0 | 0.00 | 0.00 | 0.00 | 84 | 11.0 |
| 20260509202011 | 63 | 0 | 0.0 | 0.0 | 0.00 | 0.00 | 0.00 | 86 | 11.0 |
| 20260509201011 | 63 | 0 | 0.0 | 0.0 | 0.00 | 0.00 | 0.00 | 86 | 11.0 |
| 20260509200011 | 64 | 0 | 0.0 | 0.0 | 0.00 | 0.00 | 0.00 | 83 | 11.0 |
| 20260509195011 | 63 | 0 | 0.0 | 0.0 | 0.00 | 0.00 | 0.00 | 84 | 10.9 |
| 20260509194011 | 63 | 0 | 0.0 | 0.0 | 0.00 | 0.00 | 0.00 | 84 | 10.9 |
| 20260509193011 | 63 | 0 | 0.0 | 0.0 | 0.00 | 0.00 | 0.00 | 84 | 10.7 |
| 20260509192011 | 64 | 0 | 0.0 | 0.0 | 0.00 | 0.00 | 0.00 | 83 | 10.6 |
| 20260509185011 | 67 | 0 | 0.0 | 0.0 | 0.00 | 0.00 | 0.00 | 79 | 10.4 |
| 20260509184011 | 67 | 0 | 0.0 | 0.0 | 0.00 | 0.00 | 0.00 | 77 | 10.5 |
| 20260509183011 | 69 | 0 | 0.0 | 0.0 | 0.00 | 0.00 | 0.00 | 72 | 10.5 |
| 20260509182011 | 70 | 0 | 0.0 | 0.0 | 0.00 | 0.00 | 0.00 | 72 | 10.6 |
| 20260509181011 | 71 | 0 | 0.0 | 0.0 | 0.00 | 0.00 | 0.00 | 68 | 10.6 |
| 20260509175011 | 72 | 45 | 2.0 | 4.0 | 0.00 | 0.00 | 0.00 | 63 | 10.7 |
| 20260509174010 | 73 | 225 | 1.0 | 2.0 | 0.00 | 0.00 | 0.00 | 62 | 10.7 |
| 20260509173011 | 73 | 225 | 0.0 | 1.0 | 0.00 | 0.00 | 0.00 | 60 | 10.7 |
| 20260509172011 | 73 | 225 | 0.0 | 1.0 | 0.00 | 0.00 | 0.00 | 56 | 10.7 |
| 20260509171010 | 73 | 225 | 1.0 | 2.0 | 0.00 | 0.00 | 0.00 | 53 | 10.9 |
| 20260509170011 | 73 | 225 | 0.0 | 2.0 | 0.00 | 0.00 | 0.00 | 55 | 10.9 |
| 20260509165011 | 74 | 247 | 1.0 | 4.0 | 0.00 | 0.00 | 0.00 | 56 | 11.1 |
| 20260509164010 | 74 | 45 | 0.0 | 1.0 | 0.00 | 0.00 | 0.00 | 55 | 11.1 |